Regional Weather Roundup
Issued by NWS Columbia, SC

Home | Current Version | Previous Version | Text Only | Print | Product List | Glossary On
Versions: 1 2 3 4 5 6 7 8 9 10 11 12 13 14 15 16 17 18 19 20 21 22 23 24 25 26 27 28 29 30 31 32 33 34 35 36 37 38 39 40 41 42 43 44 45 46 47 48 49 50
000
ASUS42 KCAE 301110
RWRCAE
REGIONAL WEATHER ROUNDUP
NATIONAL WEATHER SERVICE COLUMBIA SC
600 AM EST FRI JAN 30 2015

NOTE: "FAIR" INDICATES FEW OR NO CLOUDS BELOW 12,000 FEET WITH NO
SIGNIFICANT WEATHER AND/OR OBSTRUCTIONS TO VISIBILITY.

NOT ALL STATIONS ARE QUALITY CONTROLLED BY THE NATIONAL
WEATHER SERVICE. USE DATA WITH CAUTION...ESPECIALLY
DEWPOINT OBSERVATIONS.

SCZ001>056-GAZ040-063>065-077-301200-
...UPSTATE SOUTH CAROLINA...

CITY           SKY/WX    TMP DP  RH WIND       PRES   REMARKS
ANDERSON       CLEAR     42  30  62 NW16      30.10R
LIBERTY        SUNNY     42  30  61 MISG      30.09R
SPARTANBURG    CLEAR     43  28  56 NW14G21   30.07R
CLEMSON        CLEAR     42  28  57 W12G22    30.11R
GREENVILLE     CLEAR     41  27  57 N9        30.09R
GREENWOOD      CLEAR     44  34  67 NW5       30.09R
GREER          CLEAR     40  29  64 N14G22    30.07R WCI  32
ROCK HILL      CLEAR     42  30  62 N13       30.04R
CHESTER        SUNNY     45  30  57 NW10G18   30.04R
LAURENS        SUNNY     41  34  75 N6G16     30.07R


...CENTRAL SOUTH CAROLINA...

CITY           SKY/WX    TMP DP  RH WIND       PRES   REMARKS
COLUMBIA APT   PTCLDY    51  37  58 NW9       30.04R
COLUMBIA OWENS MOCLDY    52  36  54 VRB5      30.05R
DARLINGTON     CLOUDY    48  34  57 W7        30.02R
FLORENCE       MOCLDY    50  38  63 W6        30.00R
MCENTIRE ANGB  MOCLDY    50  38  63 NW9       30.03R
ORANGEBURG     PTCLDY    50  39  66 W9        30.03R
SUMTER SHAW    PTCLDY    50  37  60 NW9       30.01R
NEWBERRY       SUNNY     43  32  65 NW10G17   30.09R
AIKEN          FAIR      46  37  71 W10       30.08R
BARNWELL       FAIR      54  43  66 W8        30.05R
MANNING        PTSUNNY   55  37  50 W3        30.01R
CAMDEN         CLOUDY    48  32  53 NW7       30.04R
LANCASTER      MOSUNNY   41  32  70 W3        30.03R
WINNSBORO      SUNNY     43  32  65 NW8       30.04R


...EASTERN AND COASTAL SOUTH CAROLINA...

CITY           SKY/WX    TMP DP  RH WIND       PRES   REMARKS
MYRTLE BEACH   LGT RAIN  50  41  71 W12       30.01R
N MYRTLE BCH   RAIN      51  43  74 W6        29.99R
CONWAY         LGT RAIN  46  46 100 CALM      30.00R
MARION         CLOUDY    52  39  62 W7        30.00R
HARTSVILLE     PTSUNNY   48  39  71 CALM      30.02R
FLORENCE       MOCLDY    50  38  63 W6        30.00R
DARLINGTON     CLOUDY    48  34  57 W7        30.02R
CHARLESTON APT LGT RAIN  53  44  71 W8        30.02F
MOUNT PLEASANT PTSUNNY   54  45  71 W3        30.02S
WALTERBORO     CLOUDY    55  41  58 W9        30.04R
BEAUFORT       CLOUDY    55  44  66 W13       30.05S


...EASTERN GEORGIA...

CITY           SKY/WX    TMP DP  RH WIND       PRES   REMARKS
AUGUSTA BUSH F CLEAR     50  38  63 NW16      30.08R
AUGUSTA DANIEL CLEAR     50  38  63 NW8       30.08R
THOMSON        CLEAR     49  40  72 NW9G17    30.14R
WASHINGTON     FAIR      46  36  66 NW13G22   30.11R
CLAXTON        FAIR      54  50  87 W6        30.09R
SYLVANIA       CLOUDY    53  48  82 W10G17    30.08R
STATESBORO     CLOUDY    54  47  80 W12       30.08R
SAVANNAH       CLOUDY    52  42  69 W10       30.07S


...SOUTHERN NORTH CAROLINA...

CITY           SKY/WX    TMP DP  RH WIND       PRES   REMARKS
CHARLOTTE      CLEAR     43  27  53 NW14G21   30.04R
MONROE         CLEAR     44  29  55 NW8       30.01R
WADESBORO      PTSUNNY   43  30  60 W3        30.03R
ROCKINGHAM       N/A     44  32  62 W5        30.01R
RUTHERFORDTON  MOCLDY    38  28  68 CALM      30.09R
ASHEVILLE      MOCLDY    33  25  72 N18G30    30.10R WCI  22

$$



USA.gov is the U.S. government's official web portal to all federal, state and local government web resources and services.